Find Starlink 31619

NORAD ID: 59531 Int'l Des: 2024-073 Owner: SPXS Country: US Constellation: starlink operational
LEOCIRCULAR

Current View

Loading 3D Globe...

About Starlink 31619

Starlink 31619 (NORAD 59531) is a starlink constellation satellite (v2 mini) launched Apr 17, 2024 by SPXS of US. It operates in LEO, CIRCULAR orbit with a mass of 730.00 kg.

About Starlink 31619

Description loading...

Upcoming Passes

Passes for default location (London). Set your location on the main map for personalized predictions.

Altitude History

Loading altitude history...

Two-Line Element Set

1 59531U 24073W 26171.19202464 .00001641 00000-0 69159-4 0 9990
2 59531 43.0052 98.9991 0001452 271.0453 89.0233 15.27583312122971
Epoch: Jun 20, 2026 • Age: 8 hours

Current Status

Altitude 486.7 km
Velocity 7.62 km/s
Sub-Earth Point -19.38°S, 18.51°W
Launch Date Apr 17, 2024
Age 2.1 years
Type internet

Technical Details

Classification Payload
Mass 730.00 kg
Dry Mass 700.00 kg
Total Mass 730.00 kg
Length 0.30 m
Diameter 4.10 m
Span 29.00 m
Shape Box + pan
Manufacturer SPXS
Bus Type Starlink V2M
Phase Status In Orbit
Owner/State SPXS/US

Most Searched